sat.trackr.live / text

‹ back to catalog

GEESAT-5 09

NORAD 65558 · 2025-201J

PAYLOAD ACTIVE UNKNOWN

§ Identity

Operator
Country
PRC
Launch date
2025-09-08
Launch site
YSLA
Launch vehicle
Mass (kg)
RCS (m²)

External: N2YO · Heavens-Above · Gunter

§ Orbital elements

Epoch: 2026-05-24T23:47:44.976192Z

Period
97.03 min
Inclination
49.9796°
Eccentricity
0.0008420
Mean motion
14.84071778 rev/d
Perigee alt
610.6 km
Apogee alt
622.4 km
Semi-major
6,994.6 km
B*
1.6730e-4
RAAN
146.4808°
Arg perigee
181.8206°
Mean anomaly
178.2703°
Rev number
3,835

§ Raw data

GEESAT-5 091 65558U 25201J   26144.99149278  .00001182  00000+0  16730-3 0  99962 65558  49.9796 146.4808 0008420 181.8206 178.2703 14.84071778 38350

JSON: /api/v1/satellites/65558 · /tle

For live sub-satellite position, see the globe view (requires WebGL).

§ Visibility from observer

Set your observer location to see the next 7 days of passes ≥ 10°. The values pass through the URL so the page stays shareable.

No JS? Fill the form by hand. The geolocation button needs JavaScript.